WZZ4012 LKPR-LZIB

Flight info

Callsign WZZ4012
Flight time 0h 39m
Altitude 29000
Route VOZ DCT LIKSA DCT PEPIK DCT BERVA
Aircraft A20N/M-SDE2E3FGHIRWXY/LB1

Departure

Time 2026-05-04 10:22
Airport Václav Havel Airport Prague (LKPR)

Arrival

Time 2026-05-04 11:01
Airport M. R. Štefánik Airport (LZIB)
Time Latitude Longitude Altitude Speed Heading
2026-05-04 09:53 50.10997 14.26802 1173 ft 0 kts 57°
2026-05-04 10:11 50.10994 14.26794 1177 ft 2 kts 55°
2026-05-04 10:11 50.10984 14.26774 1172 ft 2 kts 46°
2026-05-04 10:11 50.10972 14.26758 1176 ft 2 kts 17°
2026-05-04 10:12 50.10955 14.26758 1172 ft 2 kts 331°
2026-05-04 10:12 50.10947 14.26766 1177 ft 1 kts 322°
2026-05-04 10:12 50.10947 14.26767 1177 ft 0 kts 322°
2026-05-04 10:16 50.11075 14.26572 1172 ft 13 kts 261°
2026-05-04 10:16 50.11001 14.26463 1166 ft 18 kts 215°
2026-05-04 10:16 50.10890 14.26346 1167 ft 22 kts 214°
2026-05-04 10:16 50.10774 14.26220 1172 ft 21 kts 212°
2026-05-04 10:17 50.10669 14.26109 1178 ft 16 kts 214°
2026-05-04 10:17 50.10578 14.26018 1185 ft 12 kts 213°
2026-05-04 10:19 50.10012 14.26989 1209 ft 24 kts 127°
2026-05-04 10:19 50.09912 14.27191 1211 ft 22 kts 129°
2026-05-04 10:19 50.09811 14.27376 1212 ft 23 kts 136°
2026-05-04 10:19 50.09717 14.27521 1215 ft 20 kts 136°
2026-05-04 10:20 50.09636 14.27635 1220 ft 12 kts 153°
2026-05-04 10:20 50.09562 14.27591 1225 ft 14 kts 216°
2026-05-04 10:20 50.09532 14.27556 1226 ft 0 kts 216°
2026-05-04 10:20 50.09525 14.27548 1226 ft 5 kts 216°
2026-05-04 10:21 50.09471 14.27488 1225 ft 13 kts 215°
2026-05-04 10:21 50.09418 14.27387 1224 ft 0 kts 289°
2026-05-04 10:21 50.09427 14.27375 1223 ft 6 kts 311°
2026-05-04 10:21 50.09440 14.27348 1222 ft 7 kts 307°
2026-05-04 10:22 50.10082 14.26018 1187 ft 139 kts 307°
2026-05-04 10:22 50.10718 14.24723 1540 ft 156 kts 309°
2026-05-04 10:22 50.11406 14.23402 2151 ft 162 kts 310°
2026-05-04 10:23 50.12134 14.22003 2732 ft 168 kts 309°
2026-05-04 10:23 50.12867 14.20522 3258 ft 178 kts 307°
2026-05-04 10:25 50.18068 14.07488 7724 ft 270 kts 270°
2026-05-04 10:25 50.17720 14.04631 8833 ft 271 kts 244°
2026-05-04 10:25 50.16594 14.02290 9930 ft 272 kts 219°
2026-05-04 10:25 50.14894 14.00931 10762 ft 286 kts 196°
2026-05-04 10:26 50.12829 14.00771 11220 ft 314 kts 173°
2026-05-04 10:26 50.10742 14.01998 11723 ft 338 kts 149°
2026-05-04 10:26 50.08982 14.04510 12616 ft 347 kts 133°
2026-05-04 10:26 50.07450 14.07456 13615 ft 352 kts 131°
2026-05-04 10:27 50.05873 14.10401 14474 ft 356 kts 134°
2026-05-04 10:27 50.04186 14.13254 15291 ft 360 kts 136°
2026-05-04 10:27 50.02412 14.16028 16105 ft 364 kts 138°
2026-05-04 10:27 50.00582 14.18773 16908 ft 368 kts 139°
2026-05-04 10:28 49.98711 14.21528 17710 ft 372 kts 139°
2026-05-04 10:28 49.96811 14.24309 18468 ft 377 kts 140°
2026-05-04 10:28 49.94891 14.27115 19150 ft 381 kts 139°
2026-05-04 10:28 49.92950 14.29953 19870 ft 385 kts 139°
2026-05-04 10:29 49.90982 14.32828 20559 ft 390 kts 139°
2026-05-04 10:29 49.88992 14.35736 21246 ft 394 kts 139°
2026-05-04 10:29 49.86985 14.38665 21918 ft 399 kts 139°
2026-05-04 10:29 49.84950 14.41632 22578 ft 403 kts 139°
2026-05-04 10:30 49.82921 14.44590 23232 ft 408 kts 139°
2026-05-04 10:30 49.80845 14.47611 23831 ft 412 kts 138°
2026-05-04 10:30 49.78744 14.50663 24384 ft 416 kts 138°
2026-05-04 10:30 49.76622 14.53742 24919 ft 420 kts 138°
2026-05-04 10:31 49.74481 14.56847 25450 ft 424 kts 138°
2026-05-04 10:31 49.72318 14.59980 25967 ft 428 kts 138°
2026-05-04 10:32 49.59689 14.78197 28662 ft 449 kts 138°
2026-05-04 10:33 49.57397 14.81486 28960 ft 452 kts 138°
2026-05-04 10:33 49.55140 14.84886 29006 ft 454 kts 133°
2026-05-04 10:33 49.51480 14.92767 29008 ft 455 kts 119°
2026-05-04 10:34 49.48646 15.01474 29008 ft 455 kts 117°
2026-05-04 10:34 49.45808 15.10173 29009 ft 455 kts 117°
2026-05-04 10:35 49.42952 15.18854 29010 ft 456 kts 117°
2026-05-04 10:35 49.40087 15.27531 29011 ft 456 kts 117°
2026-05-04 10:36 49.37213 15.36206 29013 ft 456 kts 117°
2026-05-04 10:36 49.34349 15.44825 29020 ft 455 kts 117°
2026-05-04 10:37 49.31459 15.53493 29017 ft 457 kts 117°
2026-05-04 10:37 49.28555 15.62167 29013 ft 458 kts 117°
2026-05-04 10:39 49.19810 15.88115 28859 ft 459 kts 117°
2026-05-04 10:39 49.18342 15.92449 28581 ft 458 kts 117°
2026-05-04 10:39 49.16882 15.96750 28335 ft 454 kts 117°
2026-05-04 10:40 49.15435 16.01008 28067 ft 450 kts 117°
2026-05-04 10:40 49.13998 16.05227 27798 ft 445 kts 117°
2026-05-04 10:40 49.12590 16.09350 27541 ft 443 kts 117°
2026-05-04 10:40 49.11163 16.13522 27275 ft 443 kts 117°
2026-05-04 10:41 49.09736 16.17691 27015 ft 441 kts 117°
2026-05-04 10:41 49.08317 16.21827 26760 ft 440 kts 118°
2026-05-04 10:41 49.06900 16.25957 26500 ft 438 kts 118°
2026-05-04 10:41 49.05491 16.30053 26235 ft 435 kts 118°
2026-05-04 10:42 49.04085 16.34133 25694 ft 435 kts 118°
2026-05-04 10:42 49.02681 16.38206 25099 ft 432 kts 118°
2026-05-04 10:42 49.01284 16.42246 24492 ft 429 kts 118°
2026-05-04 10:42 48.99895 16.46258 23872 ft 426 kts 118°
2026-05-04 10:43 48.98517 16.50232 23182 ft 423 kts 118°
2026-05-04 10:44 48.89303 16.76649 19157 ft 391 kts 118°
2026-05-04 10:45 48.88026 16.80290 18587 ft 387 kts 119°
2026-05-04 10:45 48.86762 16.83887 17954 ft 384 kts 119°
2026-05-04 10:45 48.85511 16.87440 17398 ft 378 kts 119°
2026-05-04 10:45 48.84274 16.90952 16841 ft 374 kts 119°
2026-05-04 10:46 48.83056 16.94410 16287 ft 370 kts 118°
2026-05-04 10:46 48.81845 16.97844 15739 ft 367 kts 119°
2026-05-04 10:46 48.80643 17.01245 15197 ft 365 kts 119°
2026-05-04 10:46 48.79443 17.04632 14646 ft 363 kts 119°
2026-05-04 10:47 48.78258 17.07961 14066 ft 362 kts 119°
2026-05-04 10:47 48.77071 17.11302 13550 ft 357 kts 119°
2026-05-04 10:47 48.75901 17.14596 13015 ft 353 kts 119°
2026-05-04 10:47 48.74743 17.17858 12499 ft 350 kts 119°
2026-05-04 10:49 48.67026 17.39472 10039 ft 299 kts 119°
2026-05-04 10:49 48.66057 17.42169 9747 ft 293 kts 119°
2026-05-04 10:50 48.65089 17.44867 9353 ft 291 kts 119°
2026-05-04 10:51 48.54527 17.53188 6905 ft 269 kts 184°
2026-05-04 10:52 48.52669 17.52942 6606 ft 266 kts 184°
2026-05-04 10:52 48.50838 17.52706 6345 ft 262 kts 184°
2026-05-04 10:52 48.49017 17.52472 5939 ft 262 kts 184°
2026-05-04 10:54 48.37855 17.50879 4785 ft 218 kts 199°
2026-05-04 10:54 48.36566 17.49662 4502 ft 223 kts 221°
2026-05-04 10:56 48.29500 17.39319 2995 ft 189 kts 219°
2026-05-04 10:56 48.28551 17.37940 2815 ft 188 kts 219°
2026-05-04 10:56 48.27610 17.36581 2675 ft 189 kts 219°
2026-05-04 10:57 48.26669 17.35210 2510 ft 188 kts 219°
2026-05-04 10:57 48.25765 17.33912 2479 ft 172 kts 219°
2026-05-04 10:57 48.24910 17.32683 2292 ft 171 kts 219°
2026-05-04 10:57 48.24043 17.31428 2028 ft 173 kts 219°
2026-05-04 10:58 48.23197 17.30203 1804 ft 165 kts 219°
2026-05-04 10:58 48.22383 17.29031 1597 ft 160 kts 221°
2026-05-04 10:58 48.21613 17.27912 1385 ft 147 kts 218°
2026-05-04 10:58 48.20906 17.26894 1225 ft 137 kts 218°
2026-05-04 10:59 48.20235 17.25927 1077 ft 130 kts 217°
2026-05-04 10:59 48.19604 17.25013 920 ft 123 kts 218°
2026-05-04 10:59 48.18971 17.24106 815 ft 131 kts 218°
2026-05-04 10:59 48.18321 17.23160 586 ft 126 kts 220°
2026-05-04 11:00 48.17715 17.22274 454 ft 121 kts 218°
2026-05-04 11:01 48.16694 17.20398 443 ft 11 kts 315°
2026-05-04 11:02 48.16761 17.20291 427 ft 21 kts 312°
2026-05-04 11:02 48.16771 17.20275 436 ft 23 kts 311°